Location: *
(51.1248°S, 108.4023°W)
Time: 07:35:44
(UTC+00:00)

Envisat - Pass Details

Date: 04 October 2021
Orbit: 764 x 766 km, 98.2° (Epoch: 27 October)

Event Time Altitude Azimuth Distance (km) Brightness Sun altitude
Rises 02:28:44 0° 177° (S) 3,280 6.5 -9.8°
Reaches altitude 10° 02:32:01 10° 199° (SSW) 2,345 6.1 -10.3°
Maximum altitude 02:34:51 15° 232° (SW) 2,006 6.4 -10.7°
Drops below altitude 10° 02:37:40 10° 266° (W) 2,333 6.8 -11.1°
Sets 02:40:56 0° 288° (WNW) 3,251 7.1 -11.6°
